| time (UTC) | temp F | wind direction | speed MPH | gust MPH | rain 1hr in | rain 24hr in | rain mn in | humidity % | barometer mb |
| 20260905114604 | 75 | 213 | 1.0 | 2.0 | 0.00 | 0.74 | 0.00 | 97 | 1013.5 |
| 20260905113038 | 75 | 214 | 0.0 | 2.0 | 0.00 | 0.74 | 0.00 | 97 | 1013.3 |
| 20260905111646 | 75 | 192 | 0.0 | 2.0 | 0.00 | 0.74 | 0.00 | 97 | 1013.3 |
| 20260905110038 | 75 | 192 | 0.0 | 1.0 | 0.00 | 0.74 | 0.00 | 97 | 1013.0 |
| 20260905104608 | 75 | 191 | 0.0 | 2.0 | 0.00 | 0.74 | 0.00 | 97 | 1012.8 |
| 20260905103028 | 75 | 190 | 0.0 | 3.0 | 0.00 | 0.74 | 0.00 | 97 | 1012.8 |
| 20260905101605 | 75 | 113 | 0.0 | 4.0 | 0.00 | 0.74 | 0.00 | 97 | 1012.9 |
| 20260905100022 | 75 | 182 | 1.0 | 4.0 | 0.00 | 0.74 | 0.00 | 97 | 1012.9 |
| 20260905094556 | 75 | 178 | 0.0 | 0.0 | 0.00 | 0.74 | 0.00 | 97 | 1013.1 |
| 20260905093021 | 75 | 178 | 0.0 | 2.0 | 0.00 | 0.74 | 0.00 | 97 | 1013.1 |
| 20260905091558 | 75 | 178 | 0.0 | 2.0 | 0.00 | 0.74 | 0.00 | 97 | 1013.0 |
| 20260905090017 | 75 | 178 | 0.0 | 2.0 | 0.00 | 0.74 | 0.00 | 97 | 1013.0 |
| 20260905084556 | 75 | 179 | 0.0 | 2.0 | 0.00 | 0.74 | 0.00 | 97 | 1012.8 |
| 20260905083013 | 75 | 172 | 0.0 | 0.0 | 0.00 | 0.74 | 0.00 | 97 | 1012.6 |
| 20260905081551 | 75 | 172 | 0.0 | 0.0 | 0.00 | 0.74 | 0.00 | 97 | 1012.7 |
| 20260905080012 | 76 | 172 | 0.0 | 0.0 | 0.00 | 0.74 | 0.00 | 97 | 1012.7 |
| 20260905074552 | 76 | 172 | 0.0 | 0.0 | 0.00 | 0.74 | 0.00 | 97 | 1012.8 |
| 20260905073019 | 76 | 172 | 0.0 | 0.0 | 0.00 | 0.74 | 0.00 | 97 | 1013.0 |
| 20260905071549 | 76 | 172 | 0.0 | 0.0 | 0.00 | 0.74 | 0.00 | 97 | 1013.1 |
| 20260905070013 | 76 | 172 | 0.0 | 0.0 | 0.00 | 0.74 | 0.00 | 97 | 1013.3 |
| 20260905064548 | 76 | 172 | 0.0 | 0.0 | 0.00 | 0.74 | 0.00 | 97 | 1013.3 |
| 20260905063014 | 76 | 173 | 0.0 | 0.0 | 0.00 | 0.74 | 0.00 | 97 | 1013.3 |
| 20260905061559 | 76 | 173 | 0.0 | 0.0 | 0.00 | 0.74 | 0.00 | 97 | 1013.5 |
| 20260905060028 | 75 | 173 | 0.0 | 0.0 | 0.00 | 0.74 | 0.00 | 97 | 1013.6 |
| 20260905054602 | 75 | 173 | 0.0 | 0.0 | 0.00 | 0.74 | 0.00 | 97 | 1013.7 |
| 20260905053022 | 75 | 175 | 0.0 | 0.0 | 0.00 | 0.74 | 0.00 | 97 | 1013.9 |
| 20260905051559 | 75 | 174 | 0.0 | 0.0 | 0.00 | 0.74 | 0.00 | 96 | 1014.0 |
| 20260905050026 | 75 | 211 | 0.0 | 0.0 | 0.00 | 0.74 | 0.00 | 96 | 1014.0 |
| 20260905044600 | 75 | 212 | 0.0 | 0.0 | 0.00 | 0.74 | 0.00 | 96 | 1014.0 |
| 20260905043025 | 75 | 212 | 0.0 | 0.0 | 0.00 | 0.74 | 0.00 | 96 | 1014.1 |
| 20260905041608 | 75 | 212 | 0.0 | 0.0 | 0.00 | 0.74 | 0.00 | 96 | 1013.9 |
| 20260905040032 | 75 | 213 | 0.0 | 0.0 | 0.00 | 0.74 | 0.00 | 96 | 1013.8 |
| 20260905034619 | 75 | 214 | 0.0 | 0.0 | 0.00 | 0.74 | 0.74 | 96 | 1014.0 |
| 20260905033102 | 75 | 214 | 0.0 | 1.0 | 0.00 | 0.74 | 0.74 | 96 | 1014.2 |
| 20260905031615 | 75 | 214 | 0.0 | 2.0 | 0.00 | 0.74 | 0.74 | 96 | 1014.4 |
| 20260905030051 | 75 | 214 | 0.0 | 2.0 | 0.00 | 0.74 | 0.74 | 96 | 1014.5 |
| 20260905024508 | 75 | 214 | 0.0 | 2.0 | 0.00 | 0.74 | 0.74 | 96 | 1014.6 |
| 20260905023053 | 76 | 214 | 0.0 | 2.0 | 0.00 | 0.74 | 0.74 | 96 | 1014.7 |
| 20260905021505 | 76 | 214 | 0.0 | 2.0 | 0.00 | 0.74 | 0.74 | 96 | 1014.8 |
| 20260905020040 | 76 | 214 | 0.0 | 2.0 | 0.00 | 0.74 | 0.74 | 96 | 1014.6 |
| 20260905014503 | 76 | 215 | 0.0 | 2.0 | 0.00 | 0.74 | 0.74 | 96 | 1014.4 |
| 20260905013041 | 76 | 100 | 0.0 | 1.0 | 0.01 | 0.74 | 0.74 | 96 | 1014.5 |
| 20260905011610 | 76 | 99 | 0.0 | 0.0 | 0.01 | 0.74 | 0.74 | 96 | 1014.4 |
| 20260905010041 | 76 | 99 | 0.0 | 0.0 | 0.02 | 0.74 | 0.74 | 96 | 1014.4 |
| 20260905004502 | 76 | 99 | 0.0 | 0.0 | 0.03 | 0.74 | 0.74 | 96 | 1014.2 |
| 20260905003034 | 76 | 99 | 0.0 | 2.0 | 0.03 | 0.73 | 0.73 | 96 | 1014.1 |
| 20260905001606 | 76 | 99 | 0.0 | 2.0 | 0.04 | 0.73 | 0.73 | 96 | 1014.0 |
| 20260905000034 | 75 | 99 | 0.0 | 1.0 | 0.04 | 0.72 | 0.72 | 95 | 1013.9 |
| 20260904234607 | 75 | 99 | 0.0 | 3.0 | 0.06 | 0.71 | 0.71 | 95 | 1014.1 |
| 20260904233032 | 75 | 92 | 0.0 | 0.0 | 0.08 | 0.70 | 0.70 | 95 | 1014.2 |
| 20260904231606 | 75 | 92 | 0.0 | 0.0 | 0.09 | 0.69 | 0.69 | 95 | 1014.2 |
| 20260904230052 | 75 | 92 | 0.0 | 0.0 | 0.09 | 0.67 | 0.67 | 95 | 1014.3 |
| 20260904224556 | 75 | 92 | 0.0 | 0.0 | 0.08 | 0.65 | 0.65 | 95 | 1014.5 |
| 20260904223027 | 75 | 92 | 0.0 | 0.0 | 0.06 | 0.62 | 0.62 | 95 | 1014.3 |
| 20260904221605 | 75 | 92 | 0.0 | 3.0 | 0.09 | 0.60 | 0.60 | 95 | 1014.1 |
| 20260904220022 | 75 | 41 | 0.0 | 2.0 | 0.35 | 0.57 | 0.57 | 94 | 1013.9 |
| 20260904214558 | 75 | 265 | 0.0 | 3.0 | 0.56 | 0.56 | 0.56 | 94 | 1013.8 |
| 20260904213027 | 76 | 272 | 0.0 | 2.0 | 0.55 | 0.56 | 0.56 | 93 | 1014.2 |
| 20260904211557 | 76 | 262 | 1.0 | 3.0 | 0.48 | 0.49 | 0.49 | 93 | 1014.3 |
| 20260904210023 | 78 | 138 | 0.0 | 8.0 | 0.19 | 0.20 | 0.20 | 89 | 1014.8 |
| 20260904204604 | 80 | 142 | 1.0 | 4.0 | 0.00 | 0.01 | 0.01 | 87 | 1014.8 |
| 20260904203035 | 81 | 74 | 0.0 | 4.0 | 0.00 | 0.01 | 0.01 | 87 | 1014.0 |
| 20260904201637 | 82 | 60 | 2.0 | 6.0 | 0.01 | 0.01 | 0.01 | 86 | 1013.7 |
| 20260904200043 | 83 | 76 | 2.0 | 8.0 | 0.01 | 0.01 | 0.01 | 86 | 1012.7 |
| 20260904194601 | 82 | 40 | 3.0 | 5.0 | 0.01 | 0.01 | 0.01 | 89 | 1013.5 |
| 20260904193027 | 80 | 44 | 2.0 | 7.0 | 0.01 | 0.01 | 0.01 | 92 | 1013.7 |
| 20260904191601 | 81 | 32 | 3.0 | 8.0 | 0.00 | 0.00 | 0.00 | 87 | 1013.7 |
| 20260904190033 | 85 | 30 | 2.0 | 5.0 | 0.00 | 0.00 | 0.00 | 80 | 1013.8 |
| 20260904184504 | 87 | 44 | 1.0 | 4.0 | 0.00 | 0.01 | 0.00 | 76 | 1013.6 |
| 20260904183101 | 89 | 35 | 3.0 | 5.0 | 0.00 | 0.01 | 0.00 | 72 | 1013.7 |
| 20260904181508 | 89 | 126 | 0.0 | 6.0 | 0.00 | 0.01 | 0.00 | 69 | 1014.1 |
| 20260904180041 | 89 | 123 | 2.0 | 7.0 | 0.00 | 0.01 | 0.00 | 71 | 1013.9 |
| 20260904174505 | 89 | 200 | 3.0 | 9.0 | 0.00 | 0.01 | 0.00 | 69 | 1014.0 |
| 20260904173036 | 90 | 103 | 4.0 | 7.0 | 0.00 | 0.01 | 0.00 | 67 | 1014.2 |
| 20260904171507 | 89 | 164 | 2.0 | 6.0 | 0.00 | 0.01 | 0.00 | 69 | 1014.4 |
| 20260904170044 | 88 | 244 | 3.0 | 8.0 | 0.00 | 0.01 | 0.00 | 75 | 1014.6 |
| 20260904164506 | 88 | 158 | 1.0 | 10.0 | 0.00 | 0.01 | 0.00 | 73 | 1014.9 |
| 20260904163033 | 87 | 111 | 1.0 | 5.0 | 0.00 | 0.01 | 0.00 | 75 | 1015.2 |
| 20260904161609 | 86 | 215 | 3.0 | 6.0 | 0.00 | 0.01 | 0.00 | 77 | 1015.3 |
| 20260904160042 | 86 | 121 | 0.0 | 4.0 | 0.00 | 0.01 | 0.00 | 80 | 1015.4 |
| 20260904154507 | 86 | 105 | 2.0 | 7.0 | 0.00 | 0.01 | 0.00 | 77 | 1015.6 |
| 20260904153057 | 85 | 137 | 1.0 | 6.0 | 0.00 | 0.01 | 0.00 | 80 | 1015.5 |
| 20260904151604 | 85 | 192 | 3.0 | 6.0 | 0.00 | 0.01 | 0.00 | 80 | 1015.5 |
| 20260904150039 | 85 | 196 | 1.0 | 4.0 | 0.00 | 0.01 | 0.00 | 80 | 1015.4 |
| 20260904144606 | 84 | 67 | 1.0 | 7.0 | 0.00 | 0.02 | 0.00 | 82 | 1015.2 |
| 20260904143033 | 84 | 141 | 1.0 | 6.0 | 0.00 | 0.02 | 0.00 | 83 | 1015.2 |
| 20260904141606 | 83 | 114 | 1.0 | 4.0 | 0.00 | 0.02 | 0.00 | 85 | 1015.2 |
| 20260904140031 | 81 | 132 | 0.0 | 2.0 | 0.00 | 0.02 | 0.00 | 89 | 1015.2 |
| 20260904134609 | 82 | 94 | 0.0 | 6.0 | 0.00 | 0.02 | 0.00 | 89 | 1015.1 |
| 20260904133029 | 80 | 127 | 1.0 | 4.0 | 0.00 | 0.02 | 0.00 | 91 | 1015.2 |
| 20260904131618 | 80 | 115 | 1.0 | 4.0 | 0.00 | 0.02 | 0.00 | 93 | 1015.2 |
| 20260904130027 | 79 | 123 | 0.0 | 3.0 | 0.00 | 0.02 | 0.00 | 93 | 1015.3 |
| 20260904124558 | 78 | 101 | 0.0 | 3.0 | 0.00 | 0.02 | 0.00 | 95 | 1015.2 |
| 20260904123012 | 78 | 103 | 0.0 | 0.0 | 0.00 | 0.02 | 0.00 | 96 | 1015.0 |
| 20260904121541 | 77 | 79 | 0.0 | 0.0 | 0.00 | 0.02 | 0.00 | 96 | 1014.9 |
| 20260904120005 | 76 | 78 | 0.0 | 0.0 | 0.00 | 0.02 | 0.00 | 96 | 1014.8 |